Location: Home
(42.5358°N, 72.7383°W)
Time: 12:12:56
(UTC-05:00)

Tiros 1 - Pass Details

Date: 02 December 2021
Orbit: 629 x 664 km, 48.4° (Epoch: 26 January)

Event Time Altitude Azimuth Distance (km) Brightness Sun altitude
Rises 01:52:10 0° 290° (WNW) 2,972 - -55.7°
Reaches altitude 10° 01:54:48 10° 278° (W) 2,064 - -55.3°
Maximum altitude 01:58:43 26° 223° (SW) 1,301 - -54.7°
Drops below altitude 10° 02:02:38 10° 167° (SSE) 2,067 - -54.0°
Sets 02:05:17 0° 155° (SSE) 2,979 - -53.5°
